Mesquite, TX

10:45 PM CDT on June 24, 2017 (GMT -0500)
Mesquite Metro

Weather History for KHQZ - December, 2012

Change the Weather History Date:

Friday, December 14, 2012

  Actual Average (KDFW) Record (KDFW)
Temperature  
Mean Temperature 52 °F -  
Max Temperature 60 °F 55 °F 80 °F (1995)
Min Temperature 44 °F 35 °F 14 °F (1901)
Degree Days  
Heating Degree Days 13    
Growing Degree Days 2 (Base 50)    
Moisture  
Dew Point 40 °F    
Average Humidity 60    
Maximum Humidity 88    
Minimum Humidity 40    
Precipitation  
Precipitation 0.00 in - - ()
Sea Level Pressure  
Sea Level Pressure 30.04 in    
Wind  
Wind Speed 9 mph (SE)    
Max Wind Speed 20 mph    
Max Gust Speed 26 mph    
Visibility 10 miles    
Events      
Averages and records for this station are not official NWS values.
T = Trace of Precipitation, MM = Missing Value Source: NWS Daily Summary

Daily Weather History Graph

Daily Weather History Graph

Search for Another Location

Airport or City:

Trip Planner

Search our weather history database for the weather conditions in past years. The results will help you decide how hot, cold, wet, or windy it might be!

Date:

Astronomy

Dec. 14, 2012 Rise Set
Actual Time 7:20 AM CST 5:21 PM CST
Civil Twilight 6:53 AM CST 5:48 PM CST
Nautical Twilight 6:22 AM CST 6:19 PM CST
Astronomical Twilight 5:52 AM CST 6:49 PM CST
Moon 8:29 AM CST (12/14) 7:11 PM CST (12/14)
Length of Visible Light 10h 55m
Length of Day
10h 00m
Waxing Crescent, 3% of the Moon is Illuminated
Dec 14
Waxing Crescent
Dec 19
First Quarter
Dec 28
Full
Jan 4
Last Quarter
Jan 11
New

Hourly Weather History & Observations

Time (CST) Temp. Windchill Dew Point Humidity Pressure Visibility Wind Dir Wind Speed Gust Speed Precip Events Conditions
1:15 AM 46.4 °F 43.5 °F 26.6 °F 46% 30.20 in 10.0 mi SSE 5.8 mph - N/A   Overcast
1:55 AM 44.6 °F 42.2 °F 26.6 °F 49% 30.19 in 10.0 mi South 4.6 mph - N/A   Mostly Cloudy
2:15 AM 44.6 °F 41.4 °F 28.4 °F 53% 30.20 in 10.0 mi SSE 5.8 mph - N/A   Mostly Cloudy
2:35 AM 46.4 °F 42.9 °F 26.6 °F 46% 30.19 in 10.0 mi SE 6.9 mph - N/A   Overcast
2:55 AM 46.4 °F 42.9 °F 26.6 °F 46% 30.19 in 10.0 mi SE 6.9 mph - N/A   Mostly Cloudy
3:15 AM 46.4 °F 42.9 °F 26.6 °F 46% 30.19 in 10.0 mi SSE 6.9 mph - N/A   Overcast
3:35 AM 46.4 °F 43.5 °F 26.6 °F 46% 30.18 in 10.0 mi SSE 5.8 mph - N/A   Mostly Cloudy
3:55 AM 48.2 °F - 26.6 °F 43% 30.18 in 10.0 mi SSE 8.1 mph - N/A   Overcast
4:15 AM 46.4 °F 42.9 °F 26.6 °F 46% 30.18 in 10.0 mi SE 6.9 mph - N/A   Overcast
4:35 AM 46.4 °F 44.3 °F 26.6 °F 46% 30.17 in 10.0 mi SE 4.6 mph - N/A   Overcast
4:55 AM 46.4 °F 42.9 °F 28.4 °F 50% 30.16 in 10.0 mi SE 6.9 mph - N/A   Overcast
5:15 AM 46.4 °F 44.3 °F 28.4 °F 50% 30.17 in 10.0 mi SSE 4.6 mph - N/A   Overcast
5:35 AM 48.2 °F - 28.4 °F 46% 30.16 in 10.0 mi SE 8.1 mph - N/A   Overcast
5:55 AM 50.0 °F - 28.4 °F 43% 30.16 in 10.0 mi SSE 9.2 mph - N/A   Overcast
6:15 AM 50.0 °F - 28.4 °F 43% 30.16 in 10.0 mi SE 8.1 mph - N/A   Overcast
6:35 AM 50.0 °F - 28.4 °F 43% 30.16 in 10.0 mi SE 6.9 mph - N/A   Overcast
6:55 AM 50.0 °F - 28.4 °F 43% 30.16 in 10.0 mi SE 5.8 mph - N/A   Overcast
7:15 AM 50.0 °F - 26.6 °F 40% 30.16 in 10.0 mi SE 6.9 mph - N/A   Overcast
7:35 AM 50.0 °F - 26.6 °F 40% 30.16 in 10.0 mi SE 8.1 mph - N/A   Overcast
7:55 AM 51.8 °F - 28.4 °F 41% 30.16 in 10.0 mi SE 9.2 mph - N/A   Overcast
8:15 AM 51.8 °F - 32.0 °F 47% 30.15 in 10.0 mi SE 9.2 mph - N/A   Overcast
8:35 AM 51.8 °F - 32.0 °F 47% 30.16 in 10.0 mi SE 12.7 mph - N/A   Overcast
9:15 AM 51.8 °F - 32.0 °F 47% 30.15 in 10.0 mi SE 9.2 mph 17.3 mph N/A   Overcast
9:35 AM 53.6 °F - 32.0 °F 44% 30.15 in 10.0 mi SSE 10.4 mph - N/A   Overcast
9:55 AM 53.6 °F - 33.8 °F 47% 30.15 in 10.0 mi SSE 13.8 mph - N/A   Overcast
10:15 AM 55.4 °F - 33.8 °F 44% 30.15 in 10.0 mi SSE 10.4 mph - N/A   Overcast
10:35 AM 55.4 °F - 35.6 °F 47% 30.13 in 10.0 mi SE 10.4 mph - N/A   Overcast
10:55 AM 57.2 °F - 37.4 °F 48% 30.12 in 10.0 mi SSE 15.0 mph 19.6 mph N/A   Overcast
11:15 AM 59.0 °F - 39.2 °F 48% 30.11 in 10.0 mi SSE 16.1 mph 20.7 mph N/A   Mostly Cloudy
11:35 AM 60.8 °F - 42.8 °F 52% 30.10 in 10.0 mi SSE 19.6 mph 25.3 mph N/A   Mostly Cloudy
11:55 AM 59.0 °F - 42.8 °F 55% 30.09 in 10.0 mi SSE 19.6 mph 24.2 mph N/A   Overcast
12:15 PM 59.0 °F - 42.8 °F 55% 30.07 in 10.0 mi SSE 13.8 mph 21.9 mph N/A   Overcast
12:35 PM 59.0 °F - 42.8 °F 55% 30.05 in 10.0 mi SSE 10.4 mph - N/A   Overcast
1:15 PM 59.0 °F - 44.6 °F 59% 30.02 in 10.0 mi SE 8.1 mph - N/A   Overcast
1:35 PM 59.0 °F - 44.6 °F 59% 30.01 in 10.0 mi SSE 10.4 mph - N/A   Overcast
2:35 PM 55.4 °F - 50.0 °F 82% 29.96 in 10.0 mi ESE 10.4 mph - N/A   Overcast
2:55 PM 55.4 °F - 50.0 °F 82% 29.94 in 10.0 mi ESE 13.8 mph - N/A   Mostly Cloudy
3:15 PM 57.2 °F - 50.0 °F 77% 29.92 in 10.0 mi SE 12.7 mph 19.6 mph N/A   Scattered Clouds
3:35 PM 57.2 °F - 48.2 °F 72% 29.92 in 10.0 mi SE 15.0 mph 24.2 mph N/A   Clear
3:55 PM 59.0 °F - 48.2 °F 67% 29.94 in 10.0 mi SE 12.7 mph - N/A   Mostly Cloudy
4:15 PM 59.0 °F - 48.2 °F 67% 29.94 in 10.0 mi SE 11.5 mph - N/A   Overcast
4:35 PM 59.0 °F - 48.2 °F 67% 29.93 in 10.0 mi SE 10.4 mph - N/A   Overcast
4:55 PM 59.0 °F - 48.2 °F 67% 29.90 in 10.0 mi SE 12.7 mph - N/A   Overcast
5:15 PM 59.0 °F - 50.0 °F 72% 29.90 in 10.0 mi SE 13.8 mph - N/A   Overcast
5:35 PM 59.0 °F - 50.0 °F 72% 29.89 in 10.0 mi SE 13.8 mph 17.3 mph N/A   Overcast
5:55 PM 59.0 °F - 50.0 °F 72% 29.89 in 10.0 mi SE 12.7 mph 17.3 mph N/A   Overcast
6:15 PM 59.0 °F - 50.0 °F 72% 29.89 in 10.0 mi SE 13.8 mph 20.7 mph N/A   Overcast
6:35 PM 59.0 °F - 51.8 °F 77% 29.88 in 10.0 mi SE 16.1 mph 20.7 mph N/A   Overcast
7:35 PM 59.0 °F - 51.8 °F 77% 29.89 in 10.0 mi SSE 13.8 mph 20.7 mph N/A   Overcast
7:55 PM 59.0 °F - 51.8 °F 77% 29.89 in 10.0 mi SSE 13.8 mph - N/A   Overcast
8:15 PM 59.0 °F - 51.8 °F 77% 29.89 in 10.0 mi SSE 13.8 mph 17.3 mph N/A   Overcast
8:35 PM 59.0 °F - 51.8 °F 77% 29.89 in 10.0 mi SSE 12.7 mph 18.4 mph N/A   Overcast
8:55 PM 59.0 °F - 51.8 °F 77% 29.90 in 10.0 mi SSE 12.7 mph - N/A   Overcast
9:15 PM 59.0 °F - 51.8 °F 77% 29.89 in 10.0 mi SSE 16.1 mph 21.9 mph N/A   Overcast
9:35 PM 59.0 °F - 53.6 °F 82% 29.89 in 10.0 mi SSE 15.0 mph 24.2 mph N/A   Overcast
9:55 PM 59.0 °F - 53.6 °F 82% 29.88 in 10.0 mi SSE 18.4 mph 25.3 mph N/A   Overcast
10:15 PM 59.0 °F - 53.6 °F 82% 29.87 in 7.0 mi SSE 19.6 mph 26.5 mph N/A   Overcast
10:35 PM 59.0 °F - 53.6 °F 82% 29.87 in 7.0 mi SSE 17.3 mph 23.0 mph N/A   Overcast
10:55 PM 59.0 °F - 53.6 °F 82% 29.89 in 7.0 mi South 11.5 mph 18.4 mph N/A   Overcast
11:15 PM 59.0 °F - 55.4 °F 88% 29.89 in 7.0 mi South 13.8 mph 20.7 mph N/A   Overcast
11:55 PM 59.0 °F - 55.4 °F 88% 29.87 in 5.0 mi SSE 13.8 mph - N/A   Overcast